Flag for India Weather past 2 weeks in Firozpur, Punjab, India

Now
86 °F

Passing clouds.


Feels Like: 85 °F
Forecast: 68 / 82 °F
Wind: 6 mph from Southeast

Location: Lahore Airport

Current Time: Mar 28, 2015 at 8:08:56 PM

Latest Report: Mar 28, 2015 at 7:30 PM


Visibility: 4 mi

Pressure: 29.74 "Hg

Humidity: 40%

Dew point: 59 °F

Location of FirozpurLocation

Historic Weather in Firozpur — Graph

°F

Firozpur temperature yesterday

Maximum temperature yesterday: 91 °F (at 2:25 PM)
Minimum temperature yesterday: 66 °F (at 5:30 AM)
Average temperature yesterday: 80 °F

Past Weeks' High & Low Weather Summary

 TemperatureHumidityPressure
High95 °F (Mar 28, 3:30 PM)100% (Mar 15, 8:55 PM)30.15 "Hg (Mar 15, 8:55 PM)
Low54 °F (Mar 17, 5:00 AM)23% (Mar 23, 3:55 PM)29.74 "Hg (Mar 28, 5:30 PM)
Average73 °F58%29.97 "Hg
* Reported Mar 13 6:55 PM — Mar 28 7:00 PM, Firozpur, Weather by CustomWeather, © 2015

Note: Actual official high and low records may vary slightly from our data, if they occured in-between our weather recording intervals... More about our weather records

Advertising

Firozpur weather history for previous 24 hours

 ConditionsComfort  
Time TempWeatherWind HumidityBarometerVisibility
7:00 PM
Sat, Mar 28
90 °FPassing clouds.7 mph31%29.74 "Hg4 mi
6:30 PM91 °FScattered clouds.7 mph30%29.74 "Hg4 mi
6:00 PM93 °FScattered clouds.6 mph28%29.74 "Hg4 mi
5:30 PM93 °FScattered clouds.6 mph28%29.74 "Hg5 mi
5:00 PM95 °FScattered clouds.3 mph25%29.77 "Hg5 mi
4:30 PM95 °FScattered clouds.8 mph25%29.77 "Hg5 mi
4:00 PM95 °FScattered clouds.5 mph25%29.80 "Hg5 mi
3:30 PM95 °FScattered clouds.6 mph25%29.80 "Hg5 mi
3:00 PM93 °FScattered clouds.No wind28%29.83 "Hg5 mi
2:30 PM93 °FScattered clouds.3 mph28%29.83 "Hg5 mi
1:55 PM93 °FScattered clouds.3 mph28%29.86 "Hg4 mi
1:25 PM93 °FScattered clouds.3 mph28%29.86 "Hg4 mi
12:55 PM91 °FScattered clouds.5 mph30%29.86 "Hg4 mi
12:25 PM91 °FScattered clouds.3 mph30%29.89 "Hg4 mi
11:55 AM88 °FScattered clouds.No wind35%29.89 "Hg4 mi
11:25 AM88 °FScattered clouds.No wind35%29.92 "Hg4 mi
10:55 AM84 °FScattered clouds.No wind43%29.92 "Hg3 mi
10:25 AM82 °FScattered clouds.No wind45%29.92 "Hg3 mi
9:55 AM79 °FPassing clouds.3 mph58%29.92 "Hg2 mi
9:25 AM77 °FPassing clouds.No wind61%29.92 "Hg2 mi
8:55 AM75 °FPassing clouds.No wind65%29.92 "Hg2 mi
8:25 AM73 °FPassing clouds.3 mph69%29.89 "Hg2 mi
7:55 AM72 °FPassing clouds.3 mph69%29.89 "Hg2 mi
7:25 AM70 °FScattered clouds.No wind73%29.89 "Hg2 mi
6:55 AM68 °FScattered clouds.No wind73%29.86 "Hg2 mi
5:25 AM68 °FPassing clouds.3 mph73%29.86 "Hg2 mi
4:55 AM70 °FPassing clouds.3 mph69%29.86 "Hg2 mi
4:25 AM70 °FPassing clouds.No wind69%29.86 "Hg2 mi
3:55 AM72 °FPassing clouds.3 mph65%29.86 "Hg2 mi
3:25 AM72 °FPassing clouds.No wind65%29.86 "Hg2 mi
2:55 AM73 °FPassing clouds.5 mph65%29.89 "Hg3 mi
2:25 AM73 °FPassing clouds.No wind65%29.89 "Hg3 mi
1:55 AM75 °FPassing clouds.No wind61%29.92 "Hg3 mi
1:25 AM75 °FPassing clouds.3 mph61%29.92 "Hg3 mi
12:58 AM75 °FPassing clouds.No wind57%29.92 "Hg3 mi
12:25 AM75 °FPassing clouds.No wind57%29.92 "Hg3 mi
10:55 PM
Fri, Mar 27
79 °FPassing clouds.No wind51%29.92 "Hg4 mi
10:25 PM79 °FPassing clouds.No wind51%29.92 "Hg4 mi
9:55 PM79 °FPassing clouds.3 mph48%29.92 "Hg4 mi
9:25 PM81 °FClear.3 mph48%29.92 "Hg4 mi
8:55 PM82 °FClear.No wind45%29.92 "Hg4 mi
8:25 PM82 °FClear.No wind45%29.92 "Hg4 mi
Weather by CustomWeather, © 2015

See weather overviewHow to use our weather pages